Simultaneous Nadir Overpasses (SNOs) Predictions

Prediction of SNOs between AQUA and METOP-B Satellite Orbit:

Table of predicted SNOs for the next 14.0 days since TLE Epoch: 4/13/2024
Index Date (AQUA) Time (AQUA) Lat,Lon (AQUA) SZA (AQUA ) Date (METOP-B) Time (METOP-B) Lat,Lon (METOP-B) SZA (METOP-B ) Distance(km) Time Diff (sec)
1 04/13/2024 13:53:47 75.18, -30.32 65.74 04/13/2024 13:52:39 75.13, -32.50 65.74 62.33 68
2 04/13/2024 14:43:17 -75.58, 136.21 113.86 04/13/2024 14:43:11 -75.58, 136.16 113.85 1.40 6
3 04/13/2024 15:32:41 75.62, -56.27 66.18 04/13/2024 15:33:50 75.64, -56.34 66.19 2.72 69
4 04/16/2024 06:05:12 75.57, 85.78 65.20 04/16/2024 06:04:08 75.56, 85.84 65.19 2.39 64
5 04/16/2024 06:54:35 -75.62,-106.71 114.77 04/16/2024 06:54:48 -75.63,-106.63 114.76 2.31 13
6 04/18/2024 22:16:28 75.58,-157.01 64.27 04/18/2024 22:15:45 75.59,-156.98 64.29 1.75 43
7 04/18/2024 23:05:51 -75.63, 10.51 115.70 04/18/2024 23:06:26 -75.62, 10.42 115.71 2.80 35
8 04/21/2024 14:27:43 75.59, -39.82 63.37 04/21/2024 14:27:22 75.62, -39.82 63.40 2.87 21
9 04/21/2024 15:17:06 -75.64, 127.70 116.60 04/21/2024 15:18:03 -75.64, 127.58 116.60 3.47 57
10 04/24/2024 05:49:33 -75.61, -90.28 117.50 04/24/2024 05:48:19 -75.59, -90.17 117.51 3.54 74
11 04/24/2024 06:38:56 75.61, 77.36 62.50 04/24/2024 06:38:58 75.64, 77.30 62.52 3.01 2
12 04/24/2024 07:28:24 -75.90,-115.85 117.22 04/24/2024 07:29:34 -75.90,-114.54 117.24 35.69 70
13 04/26/2024 22:00:45 -75.58, 27.04 118.39 04/26/2024 21:59:56 -75.60, 26.94 118.37 3.44 49
14 04/26/2024 22:50:09 75.64,-165.47 61.66 04/26/2024 22:50:35 75.65,-165.59 61.67 3.38 26



Historial Predications of SNOs between AQUA and METOP-B
